TimePST,TemperatureF,Dew PointF,Humidity,Sea Level PressureIn,VisibilityMPH,Wind Direction,Wind SpeedMPH,Gust SpeedMPH,PrecipitationIn,Events,Conditions,WindDirDegrees,DateUTC
12:52 AM,53.1,37.9,57,29.96,10.0,NW,10.4,-,N/A,,Overcast,310,2013-01-07 08:52:00
1:52 AM,55.0,36.0,49,29.96,10.0,WNW,9.2,-,N/A,,Overcast,290,2013-01-07 09:52:00
2:52 AM,54.0,37.0,53,29.97,10.0,WNW,12.7,-,N/A,,Overcast,300,2013-01-07 10:52:00
3:52 AM,53.1,37.0,55,29.97,10.0,WNW,6.9,-,0.00,,Mostly Cloudy,290,2013-01-07 11:52:00
4:52 AM,54.0,34.0,47,29.97,10.0,WNW,11.5,-,N/A,,Overcast,300,2013-01-07 12:52:00
5:52 AM,53.1,30.9,43,29.98,10.0,NW,9.2,-,N/A,,Partly Cloudy,310,2013-01-07 13:52:00
6:52 AM,51.1,28.9,43,30.01,10.0,Calm,Calm,-,N/A,,Clear,0,2013-01-07 14:52:00
7:52 AM,51.1,30.0,44,30.03,10.0,Calm,Calm,-,N/A,,Clear,0,2013-01-07 15:52:00
8:52 AM,59.0,26.1,28,30.04,10.0,NNW,10.4,-,N/A,,Clear,340,2013-01-07 16:52:00
9:52 AM,62.1,23.0,22,30.04,10.0,WNW,12.7,-,N/A,,Clear,290,2013-01-07 17:52:00
10:52 AM,64.9,23.0,20,30.01,10.0,WNW,17.3,21.9,N/A,,Clear,290,2013-01-07 18:52:00
11:52 AM,66.9,21.9,18,29.99,10.0,WNW,17.3,24.2,N/A,,Clear,290,2013-01-07 19:52:00
12:52 PM,69.1,19.9,15,29.96,9.0,NNW,18.4,24.2,N/A,,Clear,330,2013-01-07 20:52:00
1:26 PM,69.8,19.4,15,29.94,3.0,NNW,21.9,29.9,N/A,,Haze,340,2013-01-07 21:26:00
1:52 PM,69.1,19.0,15,29.94,10.0,NNW,18.4,25.3,N/A,,Clear,340,2013-01-07 21:52:00
2:52 PM,70.0,17.1,13,29.94,10.0,NW,10.4,-,N/A,,Clear,320,2013-01-07 22:52:00
3:52 PM,70.0,16.0,13,29.94,10.0,WNW,10.4,21.9,N/A,,Clear,300,2013-01-07 23:52:00
4:52 PM,64.9,17.1,16,29.96,10.0,WNW,11.5,-,N/A,,Clear,300,2013-01-08 00:52:00
5:52 PM,68.0,14.0,12,29.94,8.0,North,27.6,34.5,N/A,,Clear,350,2013-01-08 01:52:00
6:52 PM,66.0,14.0,13,29.96,10.0,WNW,9.2,18.4,N/A,,Clear,290,2013-01-08 02:52:00
7:52 PM,59.0,17.1,20,29.97,10.0,NNW,8.1,-,N/A,,Clear,330,2013-01-08 03:52:00
8:52 PM,62.1,15.1,16,29.98,10.0,Calm,Calm,-,N/A,,Clear,0,2013-01-08 04:52:00
9:52 PM,57.9,15.1,19,29.98,10.0,NE,8.1,-,N/A,,Clear,50,2013-01-08 05:52:00
10:52 PM,57.0,15.1,19,29.98,10.0,West,3.5,-,N/A,,Clear,260,2013-01-08 06:52:00
11:52 PM,48.0,17.1,29,29.98,10.0,NE,3.5,-,N/A,,Clear,40,2013-01-08 07:52:00